Weather History for Forest City, IA

Change the Weather History Date:

Wednesday, January 11, 2012

  Actual Average Record
Temperature  
Mean Temperature 24 °F -  
Max Temperature 33 °F 21 °F 39 °F (2013)
Min Temperature 14 °F 1 °F 14 °F (2012)
Degree Days  
Heating Degree Days 42    
Moisture  
Dew Point 22 °F    
Average Humidity 85    
Maximum Humidity 100    
Minimum Humidity 67    
Precipitation  
Precipitation 0.00 in - - ()
Sea Level Pressure  
Sea Level Pressure 29.70 in    
Wind  
Wind Speed 12 mph (NW)    
Max Wind Speed 31 mph    
Max Gust Speed 43 mph    
Visibility 8 miles    
Events Snow    
Averages and records for this station are not official NWS values.
T = Trace of Precipitation, MM = Missing Value Source: NWS Daily Summary

Daily Weather History Graph

Daily Weather History Graph

Search for Another Location

Airport:

Trip Planner

Search our weather history database for the weather conditions in past years. The results will help you decide how hot, cold, wet, or windy it might be!

Date:

Astronomy

Jan. 11, 2012 Rise Set
Actual Time 7:45 AM CST 4:59 PM CST
Civil Twilight 7:13 AM CST 5:31 PM CST
Nautical Twilight 6:38 AM CST 6:06 PM CST
Astronomical Twilight 6:03 AM CST 6:41 PM CST
Moon 8:04 PM CST (1/11) 8:52 AM CST (1/11)
Length of Visible Light 10h 17m
Length of Day
9h 13m
Waning Gibbous, 93% of the Moon is Illuminated
Jan 11
Waning Gibbous
Jan 16
Last Quarter
Jan 23
New
Jan 30
First Quarter
Feb 7
Full

Hourly Weather History & Observations

Time (CST) Temp. Windchill Dew Point Humidity Pressure Visibility Wind Dir Wind Speed Gust Speed Precip Events Conditions
12:15 AM 32.0 °F 26.4 °F 28.4 °F 87% 29.65 in 10.0 mi South 5.8 mph - N/A   Clear
12:35 AM 30.2 °F 26.7 °F 26.6 °F 86% 29.64 in 10.0 mi South 3.5 mph - N/A   Clear
12:55 AM 30.2 °F 26.7 °F 26.6 °F 86% 29.64 in 10.0 mi South 3.5 mph - N/A   Clear
1:15 AM 28.4 °F - 26.6 °F 93% 29.63 in 10.0 mi Calm Calm - N/A   Clear
1:35 AM 32.0 °F 27.5 °F 28.4 °F 87% 29.63 in 10.0 mi South 4.6 mph - N/A   Clear
1:55 AM 32.0 °F 28.7 °F 28.4 °F 87% 29.63 in 10.0 mi South 3.5 mph - N/A   Clear
2:15 AM 30.2 °F - 26.6 °F 86% 29.63 in 10.0 mi Calm Calm - N/A   Clear
2:35 AM 30.2 °F 26.7 °F 26.6 °F 86% 29.63 in 10.0 mi SE 3.5 mph - N/A   Clear
2:55 AM 30.2 °F - 26.6 °F 86% 29.63 in 10.0 mi Calm Calm - N/A   Clear
3:15 AM 28.4 °F - 26.6 °F 93% 29.62 in 10.0 mi Calm Calm - N/A   Clear
3:35 AM 28.4 °F - 26.6 °F 93% 29.62 in 10.0 mi Calm Calm - N/A   Clear
3:55 AM 28.4 °F - 26.6 °F 93% 29.60 in 10.0 mi Calm Calm - N/A   Clear
4:15 AM 28.4 °F - 26.6 °F 93% 29.59 in 10.0 mi Calm Calm - N/A   Clear
4:35 AM 26.6 °F - 23.0 °F 86% 29.59 in 10.0 mi Calm Calm - N/A   Clear
4:55 AM 26.6 °F - 23.0 °F 86% 29.58 in 10.0 mi Calm Calm - N/A   Clear
5:15 AM 23.0 °F 18.4 °F 23.0 °F 100% 29.58 in 10.0 mi SE 3.5 mph - N/A   Clear
5:35 AM 23.0 °F - 23.0 °F 100% 29.58 in 10.0 mi Calm Calm - N/A   Clear
5:55 AM 26.6 °F - 23.0 °F 86% 29.59 in 10.0 mi Calm Calm - N/A   Clear
6:35 AM 24.8 °F - 23.0 °F 93% 29.60 in 10.0 mi Calm Calm - N/A   Clear
7:15 AM 24.8 °F 20.5 °F 23.0 °F 93% 29.60 in 10.0 mi WNW 3.5 mph - N/A   Clear
7:35 AM 26.6 °F - 24.8 °F 93% 29.60 in 10.0 mi Calm Calm - N/A   Clear
7:55 AM 24.8 °F 19.1 °F 23.0 °F 93% 29.61 in 7.0 mi WNW 4.6 mph - N/A   Clear
8:15 AM 30.2 °F 23.4 °F 26.6 °F 86% 29.61 in 10.0 mi NW 6.9 mph - N/A   Clear
8:35 AM 32.0 °F 23.0 °F 30.2 °F 93% 29.62 in 10.0 mi NNW 11.5 mph - N/A   Clear
8:55 AM 33.8 °F 23.9 °F 30.2 °F 87% 29.62 in 10.0 mi NNW 15.0 mph 24.2 mph N/A   Clear
9:15 AM 33.8 °F 22.2 °F 30.2 °F 87% 29.63 in 10.0 mi NNW 20.7 mph 25.3 mph N/A   Clear
9:35 AM 33.8 °F 22.2 °F 32.0 °F 93% 29.64 in 10.0 mi NNW 20.7 mph 27.6 mph N/A   Clear
9:55 AM 33.8 °F 21.9 °F 32.0 °F 93% 29.65 in 10.0 mi NNW 21.9 mph 29.9 mph N/A   Mostly Cloudy
10:15 AM 33.8 °F 21.9 °F 32.0 °F 93% 29.65 in 10.0 mi NNW 21.9 mph 32.2 mph N/A   Overcast
10:35 AM 33.8 °F 22.2 °F 32.0 °F 93% 29.66 in 10.0 mi NNW 20.7 mph 31.1 mph N/A   Overcast
10:55 AM 33.8 °F 21.6 °F 32.0 °F 93% 29.67 in 10.0 mi NNW 23.0 mph 31.1 mph N/A   Overcast
11:15 AM 33.8 °F 20.8 °F 32.0 °F 93% 29.67 in 10.0 mi NNW 26.5 mph 36.8 mph N/A   Overcast
11:35 AM 33.8 °F 21.6 °F 32.0 °F 93% 29.67 in 10.0 mi NNW 23.0 mph 35.7 mph N/A   Overcast
12:15 PM 33.8 °F 20.5 °F 30.2 °F 87% 29.67 in 10.0 mi NNW 27.6 mph 39.1 mph N/A   Overcast
12:35 PM 32.0 °F 18.4 °F 30.2 °F 93% 29.68 in 10.0 mi NNW 26.5 mph 33.4 mph N/A   Overcast
12:55 PM - - - N/A% 29.69 in 10.0 mi NNW 29.9 mph 36.8 mph N/A   Overcast
1:15 PM 32.0 °F 19.2 °F 28.4 °F 87% 29.69 in 10.0 mi NNW 23.0 mph 31.1 mph N/A   Overcast
1:35 PM 30.2 °F 16.8 °F 26.6 °F 86% 29.69 in 10.0 mi NNW 23.0 mph 34.5 mph N/A   Overcast
1:55 PM 30.2 °F 15.7 °F 26.6 °F 86% 29.71 in 10.0 mi NNW 27.6 mph 32.2 mph N/A   Overcast
2:15 PM 30.2 °F 17.1 °F 24.8 °F 80% 29.72 in 10.0 mi NW 21.9 mph 39.1 mph N/A   Overcast
2:35 PM 28.4 °F 14.1 °F 23.0 °F 80% 29.73 in 10.0 mi NNW 24.2 mph 32.2 mph N/A   Overcast
2:55 PM 26.6 °F 12.4 °F 21.2 °F 80% 29.74 in 2.5 mi NNW 21.9 mph 38.0 mph N/A Snow Light Snow
3:15 PM 24.8 °F 8.1 °F 21.2 °F 86% 29.75 in 1.2 mi NNW 28.8 mph 33.4 mph N/A Snow Light Snow
3:35 PM 23.0 °F 5.7 °F 19.4 °F 86% 29.75 in 0.8 mi NNW 28.8 mph 36.8 mph N/A Snow Light Snow
3:55 PM 23.0 °F 5.7 °F 19.4 °F 86% 29.77 in 1.2 mi NNW 28.8 mph 36.8 mph N/A Snow Light Snow
4:15 PM 23.0 °F 6.0 °F 17.6 °F 80% 29.77 in 1.2 mi NNW 27.6 mph 38.0 mph N/A Snow Light Snow
4:35 PM 23.0 °F 6.9 °F 17.6 °F 80% 29.78 in 1.5 mi NNW 24.2 mph 38.0 mph N/A Snow Light Snow
4:55 PM 21.2 °F 4.2 °F 15.8 °F 80% 29.79 in 2.0 mi NW 25.3 mph 35.7 mph N/A Snow Light Snow
5:15 PM 21.2 °F 4.5 °F 14.0 °F 74% 29.79 in 1.2 mi NNW 24.2 mph 38.0 mph N/A Snow Light Snow
5:35 PM 19.4 °F 1.4 °F 14.0 °F 80% 29.80 in 5.0 mi NNW 26.5 mph 36.8 mph N/A Snow Light Snow
5:55 PM 19.4 °F 1.4 °F 12.2 °F 74% 29.81 in 10.0 mi NW 26.5 mph 36.8 mph N/A Snow Light Snow
6:15 PM 19.4 °F 1.8 °F 12.2 °F 74% 29.81 in 10.0 mi NNW 25.3 mph 34.5 mph N/A Snow Light Snow
6:35 PM 19.4 °F 2.5 °F 12.2 °F 74% 29.81 in 7.0 mi NW 23.0 mph 33.4 mph N/A Snow Light Snow
6:55 PM - - - N/A% 29.82 in 7.0 mi NW 25.3 mph 35.7 mph N/A   Unknown
7:15 PM - - - N/A% 29.82 in 10.0 mi NNW 20.7 mph 35.7 mph N/A   Overcast
7:35 PM 17.6 °F 1.3 °F 10.4 °F 73% 29.82 in 10.0 mi NW 19.6 mph 31.1 mph N/A   Overcast
7:55 PM 17.6 °F 0.1 °F 10.4 °F 73% 29.83 in 7.0 mi NW 23.0 mph 35.7 mph N/A Snow Light Snow
8:15 PM 17.6 °F -2.2 °F 8.6 °F 68% 29.83 in 10.0 mi NNW 31.1 mph 40.3 mph N/A   Overcast
8:55 PM 15.8 °F -1.9 °F 8.6 °F 73% 29.82 in 10.0 mi NW 21.9 mph 33.4 mph N/A Snow Light Snow
9:15 PM 15.8 °F -3.1 °F 8.6 °F 73% 29.82 in 10.0 mi NNW 25.3 mph 40.3 mph N/A   Overcast
9:35 PM 15.8 °F -1.1 °F 8.6 °F 73% 29.82 in 10.0 mi NW 19.6 mph 26.5 mph N/A Snow Light Snow
9:55 PM 14.0 °F -6.2 °F 6.8 °F 73% 29.82 in 10.0 mi NNW 27.6 mph 34.5 mph N/A Snow Light Snow
10:15 PM 14.0 °F -6.2 °F 6.8 °F 73% 29.82 in 7.0 mi NNW 27.6 mph 38.0 mph N/A   Overcast
10:35 PM 14.0 °F -7.1 °F 5.0 °F 67% 29.82 in 7.0 mi NNW 31.1 mph 40.3 mph N/A   Overcast
10:55 PM - - - N/A% 29.82 in 4.0 mi NNW 25.3 mph 42.6 mph N/A   Haze
11:15 PM - - - N/A% 29.81 in 7.0 mi NNW 25.3 mph 40.3 mph N/A   Scattered Clouds
11:35 PM - - - N/A% 29.81 in 10.0 mi NNW 31.1 mph 39.1 mph N/A   Mostly Cloudy
11:55 PM - - - N/A% 29.81 in 7.0 mi NNW 31.1 mph 41.4 mph N/A   Overcast